Погода в Березовке

Россия / Пензенская область     52°52′50″N   46°47′17″E
темп.,
°C
ветер,
м/с
пор.,
м/с
влажн.,
%
обл.,
%
осадки,
мм/ч
давл.,
гПа
погр.,
м
17 мая, пн
пн1700:00+18ююв23559 0.0 101637
03:00+17ююв35546 0.0 101673
06:00+19ю386063 0.0 1017181
09:00+25ююз244167 0.0 1017285
12:00+29ююв362729 0.0 10173228
15:00+29ююв562697 0.0 10163172
18:00+25юв264791 0.0 1015132
21:00+19в224886 0.0 101618
18 мая, вт
вт1800:00+16всв346218 0.0 101743
03:00+16вюв34505 0.0 101660
06:00+19в310485 0.0 1016227
09:00+25вюв510305 0.0 1015615
12:00+28юв56294 0.0 1015888
15:00+29юв56270 0.0 10151681
18:00+26в410394 0.0 1014441
21:00+19в311470 0.0 1014168
19 мая, ср
ср1900:00+18в39520 0.0 1014134
03:00+17в413510 0.0 1014223
06:00+18в512600 0.0 1014280
09:00+25в69455 0.0 1013607
12:00+28вюв68351 0.0 10132002
15:00+28вюв69335 0.0 10133166
18:00+24в6114828 0.0 10121073
21:00+20в514540 0.0 1013730
20 мая, чт
чт2000:00+19вюв716630 0.0 1013837
03:00+17вюв515719 0.0 1013760
06:00+16вюв61471100 0.0 1013781
09:00+20юв71061100 0.0 10121158
12:00+20юв61064100 0.2 10121521
15:00+15ююз71193100 6.3 1013966
18:00+13ююв2596100 7.6 1013274
21:00+13ю2496100 9.2 1013118
21 мая, пт
пт2100:00+12ююз2796100 0.0 1012181
03:00+11ююз259694 0.0 1013120
06:00+13юз36922 0.0 1015244
09:00+17юз46675 0.0 1015989
12:00+19юз575892 0.1 10161580
15:00+21юз5846100 0.1 10162108
18:00+19ююз496428 0.1 1016600
21:00+15ююв31084100 0.4 1016188